Overview Statistics Trail Chart Weather Telemetry Raw packets
 

This is the latest recevied weather packets stored in our database for station/object M0JUI-1. If no packets are shown the sender has not sent any weather packets the latest 10 day(s).

<< 55 56 57 58 59 60 61 >>
Time Temp. Humidity Pressure Rain* Wind** Luminosity Snow
1788264285 20.56° C 99% 1019.2 hPa 0 mm - 272 W/m² -
1788263986 20.56° C 99% 1019.1 hPa 0 mm - 459 W/m² -
1788263686 19.44° C 99% 1019.3 hPa 0 mm - 703 W/m² -
1788263385 20° C 99% 1019.4 hPa 0 mm - 496 W/m² -
1788263085 18.33° C 1% 1019.2 hPa 0 mm - 620 W/m² -
1788262773 19.44° C 1% 1019.3 hPa 0 mm - 146 W/m² -
1788262473 19.44° C 99% 1019.1 hPa 0 mm - 644 W/m² -
1788262174 20° C 99% 1019.2 hPa 0 mm - 430 W/m² -
1788261873 20° C 99% 1019.2 hPa 0 mm - 434 W/m² -
1788261573 19.44° C 1% 1019.2 hPa 0 mm - 498 W/m² -
1788261274 19.44° C 1% 1019.1 hPa 0 mm - 297 W/m² -
1788260973 18.89° C 1% 1019.2 hPa 0 mm - 545 W/m² -
1788260662 18.89° C 1% 1019.5 hPa 0 mm - 543 W/m² -
1788260361 18.89° C 1% 1019.3 hPa 0 mm - 159 W/m² -
1788260061 18.89° C 1% 1019.4 hPa 0 mm - 694 W/m² -
1788259749 18.89° C 1% 1019.3 hPa 0 mm - 649 W/m² -
1788259450 18.33° C 1% 1019.2 hPa 0 mm - 577 W/m² -
1788259149 18.33° C 1% 1019.3 hPa 0 mm - 325 W/m² -
1788258838 17.78° C 1% 1019.4 hPa 0 mm - 574 W/m² -
1788258538 17.78° C 1% 1019.3 hPa 0 mm - 278 W/m² -
1788258237 17.78° C 2% 1019.5 hPa 0 mm - 146 W/m² -
1788257937 18.33° C 1% 1019.6 hPa 0 mm - 134 W/m² -
1788257638 18.89° C 1% 1019.6 hPa 0 mm - 273 W/m² -
1788257338 18.33° C 1% 1019.5 hPa 0 mm - 649 W/m² -
1788257038 18.33° C 2% 1019.6 hPa 0 mm - 610 W/m² -

* Rain latest hour (hover to see other rain measurements)
** Current wind speed in m/s (hover to see current wind gust speed)